National Weather Service Hourly Weather Roundup
NOAA NWS Hourly Roundups by Site
NOAA NWS Hourly Roundups by Site
Regional Weather Roundup for Sacramento, CA

To Select Another Site Choose from List

Select Site:  

000
ASUS46 KSTO 072015
RWRCA

NORTHERN AND CENTRAL CA REGIONAL WEATHER ROUNDUP
NATIONAL WEATHER SERVICE SACRAMENTO CA
1200 PM PST TUE FEB 07 2023

NOTE: FAIR INDICATES FEW OR NO CLOUDS BELOW 12,000 FEET WITH NO
SIGNIFICANT WEATHER AND/OR OBSTRUCTIONS TO VISIBILITY.

CAZ001-003-072100-
NORTHWEST AREA

CITY           SKY/WX    TMP DP  RH WIND       PRES   REMARKS
CRESCENT CITY  MOSUNNY   51  42  71 S9        30.46F
UKIAH          PTSUNNY   50  38  63 CALM      30.39F
$$

CAZ006-505>513-072100-
BAY AREA

CITY           SKY/WX    TMP DP  RH WIND       PRES   REMARKS
SANTA ROSA     PTSUNNY   53  43  68 CALM      30.39S
SAN RAFAEL     N/A       58  MM  MM MISG
NAPA           MOSUNNY   58  42  55 E6        30.38F
CONCORD        MOSUNNY   53  42  66 N8        30.39F
OAKLAND CITY   N/A       54  MM  MM MISG
OAKLAND        PTSUNNY   55  43  63 W8        30.38F
SAN FRAN CITY  N/A       56  MM  51 MISG
SAN FRAN ARPT  PTSUNNY   54  47  77 NE5       30.38F
LIVERMORE      MOSUNNY   57  40  52 VRB6      30.37F
HAYWARD        MOSUNNY   54  46  74 SW6       30.37F
REDWOOD CITY   N/A       57  MM  51 MISG
MOFFETT ARPT   MOSUNNY   55  39  54 VRB5      30.38F
SAN JOSE ARPT  PTSUNNY   58  39  49 NW7       30.37F
$$
CAZ034-037-514>518-072100-
CENTRAL COAST

CITY           SKY/WX    TMP DP  RH WIND       PRES   REMARKS
WATSONVILLE    MOSUNNY   57  40  52 CALM      30.37F
SALINAS        MOSUNNY   57  40  52 CALM      30.36F
MONTEREY       MOSUNNY   54  41  61 NW8       30.37S
SAN LUIS OBISP SUNNY     64  37  36 NW8       30.32F
SANTA MARIA    SUNNY     61  34  36 CALM      30.32F
HALF MOON BAY  FAIR      55  50  82 NW5       30.37F HAZE
$$
CAZ015-016-072100-
NORTHERN SACRAMENTO VALLEY

CITY           SKY/WX    TMP DP  RH WIND       PRES   REMARKS
REDDING        PTSUNNY   51  38  60 VRB5      30.39S
RED BLUFF      PTSUNNY   50  40  68 CALM      30.41F
OROVILLE       MOSUNNY   55  42  61 S6        30.41F
$$
CAZ016>018-072100-
SOUTHERN SACRAMENTO VALLEY

CITY           SKY/WX    TMP DP  RH WIND       PRES   REMARKS
AUBURN         SUNNY     54  37  54 CALM      30.38F
BEALE AFB      MOSUNNY   54  40  59 S5        30.39F
LINCOLN        FAIR      54  39  58 CALM      30.39F
MARYSVILLE     MOSUNNY   54  40  59 S5        30.40F
SAC INTL ARPT  PTSUNNY   55  42  61 CALM      30.39F
MATHER AIRPORT NOT AVBL
DOWNTOWN SAC   N/A       57  MM  MM MISG
SAC EXEC ARPT  MOSUNNY   55  40  56 CALM      30.40F
VACAVILLE      PTSUNNY   56  40  55 N6        30.40F
TRAVIS AFB     MOSUNNY   57  44  61 NE7       30.37F
$$
CAZ019>021-072100-
SAN JOAQUIN VALLEY

CITY           SKY/WX    TMP DP  RH WIND       PRES   REMARKS
STOCKTON       MOSUNNY   56  42  59 VRB3      30.38F
MODESTO        MOSUNNY   53  40  61 CALM      30.38F
MERCED         MOSUNNY   55  43  63 SW6       30.38F
LEMOORE        PTSUNNY   54  41  61 SE7       30.39F
FRESNO         PTSUNNY   55  40  56 CALM      30.38F
HANFORD        SUNNY     54  43  66 CALM      30.40F
PORTERVILLE    SUNNY     56  41  57 CALM      30.38F
BAKERSFIELD    SUNNY     53  39  59 CALM      30.37F
$$
CAZ011-012-071-072100-
NORTHERN MOUNTAINS

CITY           SKY/WX    TMP DP  RH WIND       PRES   REMARKS
YREKA          PTSUNNY   40  30  67 CALM      30.43F
MOUNT SHASTA   PTSUNNY   43  29  57 W7        30.36F
ALTURAS        PTSUNNY   37  28  70 CALM      30.37F
$$
CAZ011-012-071-072100-
SIERRA NEVADA MTNS

CITY           SKY/WX    TMP DP  RH WIND       PRES   REMARKS
BLUE CANYON    MOSUNNY   53  20  27 NW5       30.38F
TRUCKEE        PTSUNNY   30  18  59 CALM      30.42F
MAMMOTH LAKES  FAIR      28  16  60 CALM      30.41F
$$


 

View Past Reports for Sacramento, CA.

Products Courtesy of NOAA-NWS
NWS Information Parsing Script by Ken True at Saratoga Weather - Script by SE Lincoln Weather.

powered by Cumulus v1.9.3 (1059)
Ambient Weather VWS v14.00
Weather-Display (10.37S-(b58))
Virtual VP software
Top Website Map Copyright © 2007 - 2023 Foresthillweather.com Never base important decisions on this or any weather information obtained from the Internet